Location: Earls Croome
(52.0667°N, 2.2000°W)
Time: 04:47:47
(UTC+00:00)

Cosmos 2322 Rocket - Pass Details

Date: 17 November 2019
Orbit: 832 x 851 km, 71.0° (Epoch: 14 December)

Event Time Altitude Azimuth Distance (km) Brightness Sun altitude
Exits shadow 06:42:58 - 307° (NW) 2,643 4.2 -7.6°
Reaches altitude 10° 06:43:37 10° 303° (WNW) 2,470 4.0 -7.5°
Maximum altitude 06:47:25 19° 260° (W) 1,918 3.6 -6.9°
Drops below altitude 10° 06:51:15 10° 218° (SW) 2,467 4.5 -6.4°
Sets 06:54:22 0° 201° (SSW) 3,400 5.4 -5.9°
